Weather History for Montpelier, VT

Change the Weather History Date:

Friday, January 10, 2014

  Actual Average Record
Temperature  
Mean Temperature 15 °F 17 °F  
Max Temperature 29 °F 26 °F 44 °F (1956)
Min Temperature 1 °F 7 °F -19 °F (2004)
Degree Days  
Heating Degree Days 50 48  
Month to date heating degree days 562 478  
Since 1 July heating degree days 3820 3626  
Moisture  
Dew Point 13 °F    
Average Humidity 84    
Maximum Humidity 95    
Minimum Humidity 73    
Precipitation  
Precipitation T in 0.08 in 1.04 in (1977)
Month to date precipitation 0.65 0.73  
Year to date precipitation 0.65 0.73  
Sea Level Pressure  
Sea Level Pressure 30.39 in    
Wind  
Wind Speed 2 mph (SE)    
Max Wind Speed 14 mph    
Max Gust Speed 16 mph    
Visibility 9 miles    
Events Snow    
T = Trace of Precipitation, MM = Missing Value Source: NWS Daily Summary

Daily Weather History Graph

Daily Weather History Graph

Search for Another Location

Airport:

Trip Planner

Search our weather history database for the weather conditions in past years. The results will help you decide how hot, cold, wet, or windy it might be!

Date:

Astronomy

Jan. 10, 2014 Rise Set
Actual Time 7:24 AM EST 4:31 PM EST
Civil Twilight 6:51 AM EST 5:04 PM EST
Nautical Twilight 6:15 AM EST 5:40 PM EST
Astronomical Twilight 5:40 AM EST 6:15 PM EST
Moon 12:36 PM EST (1/10) 2:25 AM EST (1/10)
Length of Visible Light 10h 12m
Length of Day
9h 06m
Waxing Gibbous, 75% of the Moon is Illuminated
Jan 10
Waxing Gibbous
Jan 15
Full
Jan 24
Last Quarter
Jan 30
New
Feb 6
First Quarter

Hourly Weather History & Observations

Time (EST) Temp. Windchill Dew Point Humidity Pressure Visibility Wind Dir Wind Speed Gust Speed Precip Events Conditions
12:51 AM 1.0 °F -6.7 °F -2.0 °F 87% 30.57 in 10.0 mi SSW 3.5 mph - N/A   Clear
1:51 AM 3.0 °F - -0.0 °F 87% 30.56 in 10.0 mi Calm Calm - N/A   Clear
2:51 AM 1.9 °F - -0.9 °F 88% 30.55 in 10.0 mi Calm Calm - N/A   Clear
3:51 AM 1.9 °F - -2.0 °F 83% 30.52 in 10.0 mi Calm Calm - N/A   Clear
4:51 AM 1.9 °F - -0.9 °F 88% 30.51 in 10.0 mi Calm Calm - N/A   Partly Cloudy
5:51 AM 1.9 °F - -0.9 °F 88% 30.51 in 9.0 mi Calm Calm - N/A   Clear
6:51 AM 3.9 °F -3.4 °F 1.0 °F 88% 30.49 in 7.0 mi North 3.5 mph - N/A   Partly Cloudy
7:51 AM 7.0 °F - 3.0 °F 84% 30.49 in 8.0 mi Calm Calm - N/A   Mostly Cloudy
8:51 AM 8.1 °F - 5.0 °F 87% 30.48 in 7.0 mi Calm Calm - N/A   Overcast
9:51 AM 10.9 °F - 7.0 °F 84% 30.48 in 8.0 mi Calm Calm - N/A   Mostly Cloudy
10:51 AM 15.1 °F 7.7 °F 9.0 °F 77% 30.46 in 7.0 mi NNE 4.6 mph - N/A   Overcast
11:51 AM 19.9 °F - 12.9 °F 74% 30.43 in 7.0 mi Calm Calm - N/A   Overcast
12:51 PM 21.0 °F 14.6 °F 15.1 °F 78% 30.39 in 7.0 mi ENE 4.6 mph - 0.00 in   Overcast
1:21 PM 21.2 °F - 15.8 °F 80% 30.30 in 2.5 mi Calm Calm - 0.00 in Snow Light Snow
1:34 PM 21.2 °F 16.4 °F 15.8 °F 80% 30.30 in 3.0 mi Variable 3.5 mph - 0.00 in Snow Light Snow
1:51 PM 26.1 °F 18.4 °F 19.0 °F 75% 30.37 in 9.0 mi Variable 6.9 mph - 0.00 in   Overcast
2:13 PM 26.6 °F 15.2 °F 19.4 °F 74% 30.28 in 10.0 mi SSE 13.8 mph - N/A   Overcast
2:21 PM 26.6 °F 16.2 °F 19.4 °F 74% 30.29 in 10.0 mi SSE 11.5 mph - N/A   Overcast
2:51 PM 27.0 °F 19.5 °F 19.9 °F 75% 30.37 in 10.0 mi SSE 6.9 mph - N/A   Overcast
3:51 PM 26.1 °F 16.8 °F 19.9 °F 78% 30.36 in 10.0 mi SSE 9.2 mph - N/A   Overcast
4:51 PM 27.0 °F 20.5 °F 19.9 °F 75% 30.35 in 10.0 mi SSE 5.8 mph - N/A   Overcast
5:51 PM 27.0 °F 18.7 °F 21.0 °F 78% 30.34 in 10.0 mi SSE 8.1 mph - N/A   Overcast
6:51 PM 27.0 °F - 21.0 °F 78% 30.34 in 10.0 mi Calm Calm - N/A   Overcast
7:51 PM 26.1 °F - 21.0 °F 81% 30.34 in 9.0 mi Calm Calm - N/A   Overcast
8:51 PM 28.0 °F 22.8 °F 21.9 °F 78% 30.32 in 10.0 mi East 4.6 mph - N/A   Overcast
9:30 PM 26.6 °F - 23.0 °F 86% 30.25 in 10.0 mi Calm Calm - N/A   Overcast
9:42 PM 26.6 °F - 23.0 °F 86% 30.25 in 9.0 mi Calm Calm - N/A   Overcast
9:51 PM 27.0 °F - 23.0 °F 85% 30.31 in 9.0 mi Calm Calm - N/A   Overcast
10:03 PM 26.6 °F - 21.2 °F 80% 30.24 in 9.0 mi Calm Calm - N/A   Overcast
10:51 PM 26.1 °F - 21.9 °F 84% 30.30 in 9.0 mi Calm Calm - N/A   Overcast
11:51 PM 26.1 °F - 21.9 °F 84% 30.27 in 8.0 mi Calm Calm - N/A   Overcast